Total_Precipitation_Accumulation
0.20 0.25 0.39 0.38 0.29 0.30 0.33 0.37 0.39 0.36 0.30 0.26 0.22 0.20 0.18 0.20 0.24 0.28 0.27 0.31 0.39 0.50 0.56 0.61 0.65 0.60 0.66 0.68 0.68 0.65 0.68 0.82 0.95 1.01 1.05 1.09 1.24 1.49 1.62 1.80 1.89 1.41 1.23
0.06 0.15 0.29 0.32 0.26 0.25 0.27 0.30 0.31 0.31 0.27 0.24 0.22 0.21 0.20 0.21 0.24 0.25 0.26 0.32 0.38 0.45 0.48 0.50 0.57 0.57 0.55 0.55 0.57 0.58 0.66 0.88 1.16 1.30 1.43 1.36 1.51 1.68 1.66 1.68 1.86 1.31 1.19
0.06 0.10 0.16 0.27 0.22 0.20 0.20 0.24 0.25 0.26 0.24 0.24 0.21 0.20 0.22 0.24 0.28 0.31 0.35 0.41 0.43 0.45 0.47 0.48 0.51 0.50 0.49 0.49 0.50 0.57 0.74 1.02 1.34 1.66 1.97 1.49 1.14 1.61 1.63 1.61 1.47 1.16 1.06
0.07 0.07 0.07 0.17 0.21 0.17 0.18 0.22 0.24 0.22 0.20 0.22 0.21 0.20 0.23 0.28 0.33 0.39 0.47 0.45 0.45 0.44 0.42 0.41 0.46 0.39 0.44 0.47 0.51 0.63 0.78 1.07 1.42 1.86 1.93 1.32 0.85 1.14 1.35 1.32 1.13 0.93 0.91
0.07 0.06 0.08 0.13 0.16 0.15 0.17 0.21 0.22 0.21 0.21 0.21 0.21 0.24 0.29 0.35 0.39 0.41 0.44 0.46 0.44 0.42 0.41 0.42 0.43 0.34 0.36 0.45 0.56 0.67 0.81 1.16 1.60 1.73 1.27 1.35 1.36 1.22 1.09 1.05 1.04 0.89 0.84
0.07 0.06 0.10 0.16 0.16 0.16 0.18 0.22 0.23 0.21 0.22 0.23 0.23 0.28 0.35 0.40 0.42 0.39 0.41 0.41 0.40 0.41 0.39 0.40 0.38 0.36 0.40 0.46 0.61 0.72 0.91 1.23 1.52 1.17 0.95 1.12 1.11 1.10 1.06 1.03 0.98 0.89 0.81
0.08 0.10 0.12 0.18 0.19 0.18 0.19 0.22 0.23 0.22 0.23 0.25 0.25 0.28 0.31 0.36 0.39 0.37 0.37 0.37 0.38 0.39 0.36 0.34 0.34 0.43 0.52 0.63 0.74 0.77 0.93 1.21 1.14 0.94 1.05 1.24 1.12 1.06 1.28 1.35 1.17 0.95 0.72
0.08 0.09 0.14 0.18 0.20 0.20 0.21 0.23 0.24 0.23 0.25 0.26 0.27 0.27 0.28 0.31 0.36 0.36 0.36 0.37 0.36 0.37 0.38 0.37 0.36 0.44 0.52 0.63 0.72 0.78 0.90 1.01 0.84 0.78 0.99 1.13 0.91 1.01 1.43 1.55 1.41 1.21 0.91
0.17 0.13 0.18 0.19 0.20 0.23 0.25 0.25 0.25 0.26 0.27 0.27 0.29 0.29 0.30 0.28 0.32 0.35 0.38 0.39 0.39 0.41 0.40 0.42 0.44 0.46 0.49 0.58 0.70 0.81 0.95 1.04 0.88 0.86 0.87 1.00 0.84 1.03 1.42 1.46 1.34 1.29 1.07
0.42 0.37 0.29 0.28 0.29 0.30 0.30 0.30 0.29 0.30 0.30 0.31 0.30 0.33 0.40 0.41 0.39 0.41 0.41 0.42 0.45 0.47 0.50 0.54 0.57 0.60 0.64 0.68 0.76 0.87 1.00 0.90 0.87 0.91 0.94 0.90 0.86 1.21 1.47 1.46 1.42 1.38 1.22
0.70 0.70 0.54 0.48 0.41 0.42 0.40 0.35 0.44 0.43 0.43 0.47 0.49 0.51 0.71 0.98 0.88 0.85 0.65 0.67 0.66 0.67 0.72 0.78 0.81 0.85 0.83 0.83 0.96 1.04 0.90 0.92 1.14 0.98 0.94 0.90 1.08 1.42 1.58 1.63 1.62 1.57 1.46
0.92 0.77 0.73 0.74 0.57 0.58 0.59 0.65 0.91 0.85 0.85 0.94 0.99 0.97 1.27 1.39 1.33 0.96 0.92 1.10 1.14 1.18 1.18 1.25 1.39 1.34 1.11 0.91 1.11 1.44 1.11 1.10 1.17 0.97 0.84 0.95 1.22 1.55 1.69 1.77 1.62 1.56 1.52
1.09 0.95 1.05 1.01 0.86 0.83 1.03 0.90 1.04 1.26 1.43 1.42 1.37 1.51 1.67 1.42 1.21 1.09 1.24 1.44 1.48 1.52 1.54 1.69 1.93 1.73 1.69 1.63 1.68 1.73 1.40 1.35 1.28 1.05 1.10 1.33 1.53 1.84 2.00 1.91 1.78 1.65 1.54
1.60 1.53 1.52 1.54 1.48 1.41 1.27 1.27 1.21 1.23 1.35 1.50 1.55 1.52 1.71 1.76 1.68 1.58 1.60 1.58 1.59 1.69 1.95 1.98 2.13 2.22 2.26 2.03 1.92 1.94 1.73 1.59 1.50 1.44 1.60 1.79 1.84 2.06 2.28 2.12 1.96 1.80 1.69
2.36 2.45 2.41 2.27 2.04 2.04 1.97 1.78 1.47 1.49 1.45 1.46 1.70 1.74 1.83 1.95 2.03 2.00 1.87 1.84 1.60 1.66 1.97 2.28 2.18 2.32 2.50 2.35 2.06 1.92 1.83 1.66 1.63 1.57 1.69 1.89 1.80 1.88 2.17 2.25 2.20 2.06 1.98
3.14 3.53 3.31 3.09 2.76 2.61 2.53 2.37 2.22 1.91 1.81 1.62 1.74 1.87 2.04 2.19 2.27 2.25 2.04 1.96 1.67 1.64 1.87 2.14 2.17 2.35 2.40 2.41 2.01 1.83 1.75 1.80 1.77 1.63 1.70 1.90 1.87 1.71 1.87 2.19 2.40 2.44 2.31
3.78 4.29 4.03 3.89 3.83 3.57 3.39 2.98 2.49 2.15 1.93 2.04 2.14 2.26 2.36 2.42 2.49 2.44 2.27 1.99 1.85 1.92 2.02 2.04 2.11 2.49 2.34 2.23 2.03 2.03 1.98 1.94 1.80 1.73 1.69 1.86 1.69 1.60 1.61 1.78 2.10 2.37 2.63
3.99 4.35 4.67 4.41 4.72 4.59 4.24 3.73 3.20 2.90 2.73 2.59 2.50 2.57 2.44 2.43 2.46 2.57 2.24 1.88 2.02 2.18 2.20 2.19 2.22 2.44 2.45 2.51 2.42 2.27 2.10 1.95 1.54 1.46 1.49 1.55 1.68 1.43 1.56 1.77 1.90 2.02 2.46
4.27 4.74 5.18 5.40 5.47 5.04 4.64 4.21 3.90 3.64 3.33 2.89 2.41 2.17 2.03 1.93 1.89 1.95 1.65 1.55 1.70 1.80 1.69 1.62 1.93 2.13 2.22 2.32 2.21 2.05 1.76 1.61 1.43 1.33 1.36 1.20 1.30 1.34 1.41 1.63 1.82 1.85 2.28
4.36 5.22 5.64 5.74 5.35 4.93 4.53 4.02 3.80 3.48 3.12 2.73 2.25 1.87 1.64 1.56 1.47 1.56 1.30 1.23 1.44 1.57 1.56 1.67 1.80 1.80 1.74 1.80 1.60 1.45 1.34 1.16 1.16 1.14 1.01 1.00 1.00 1.00 1.20 1.48 1.69 1.49 1.96
4.47 5.42 5.79 5.49 4.91 4.45 3.99 3.46 3.05 2.69 2.43 2.29 2.00 1.65 1.51 1.48 1.48 1.58 1.32 1.42 1.46 1.49 1.50 1.54 1.61 1.54 1.33 1.47 1.70 1.50 1.21 1.05 1.01 0.91 0.86 0.90 0.83 0.90 1.12 1.36 1.54 1.64 1.53
3.94 4.70 4.97 4.59 3.93 3.34 3.03 2.84 2.60 2.46 2.14 1.90 1.77 1.62 1.37 1.34 1.35 1.37 1.37 1.15 1.18 1.29 1.20 1.23 1.47 1.47 1.25 1.32 1.58 1.66 1.43 1.35 1.13 0.70 0.73 0.79 0.80 0.93 1.08 1.16 1.42 1.66 1.63
3.42 3.42 3.51 3.38 2.86 2.50 2.38 2.34 2.26 2.27 2.05 1.77 1.61 1.43 1.24 1.17 1.12 1.14 1.12 1.09 1.16 1.13 1.18 1.22 1.28 1.36 1.28 1.16 1.24 1.59 1.49 1.30 1.09 0.85 0.75 0.73 0.85 1.03 1.11 1.22 1.26 1.36 1.49
2.54 2.36 2.35 2.41 2.23 2.14 2.04 2.01 1.85 1.67 1.58 1.46 1.44 1.36 1.24 1.17 1.09 1.01 0.99 0.96 1.03 1.05 1.22 1.05 1.11 1.21 1.24 1.08 1.08 1.16 1.16 1.20 1.21 1.09 0.90 0.81 0.85 1.00 1.14 1.17 1.28 1.40 1.43
1.65 1.70 1.86 2.08 2.08 1.97 1.91 1.98 1.95 1.65 1.48 1.39 1.37 1.41 1.28 1.16 1.09 1.02 1.00 1.03 1.04 1.01 1.04 1.07 1.19 1.14 1.11 1.06 1.06 1.10 1.19 1.19 1.12 1.14 1.12 0.98 0.88 0.78 0.88 1.08 1.25 1.37 1.37
1.07 1.21 1.41 1.77 1.90 1.81 1.75 1.77 1.73 1.63 1.56 1.42 1.28 1.26 1.24 1.16 1.14 1.14 1.08 1.11 1.06 1.03 1.03 1.03 1.08 1.07 1.12 1.16 1.08 1.07 1.22 1.28 1.19 1.19 1.13 1.03 0.94 0.77 0.78 0.98 1.26 1.42 1.42